Lid_Strength_Index
7 10 11 10 9 9 9 10 9 8 7 9 10 10 8 6 7 7 7 6 7 5 4 3 2 2 2 1 3 2 1 1 1 1 2 2 2 1 1 1 0 0 -0 -0
9 11 8 8 7 9 9 10 11 7 7 9 10 9 7 7 7 6 6 6 6 5 4 4 3 3 2 2 2 2 1 1 1 1 1 1 1 1 1 1 0 0 0 0
10 8 7 8 8 9 10 12 11 9 8 8 9 11 9 7 6 6 6 5 5 5 5 5 4 4 4 3 2 2 1 2 1 1 1 1 1 1 1 1 1 0 0 0
9 7 8 8 9 9 13 9 9 8 11 13 9 15 11 9 8 7 6 7 6 5 5 4 4 4 4 4 3 2 1 1 1 1 2 2 2 3 2 1 1 1 -0 0
10 9 9 9 8 8 10 8 9 8 12 12 11 13 12 10 9 9 8 6 5 5 4 4 4 3 3 3 3 2 2 1 1 1 1 2 2 2 2 1 1 1 1 1
9 7 8 8 7 8 7 10 11 12 14 15 13 13 14 13 11 9 7 6 5 5 4 4 3 3 3 2 2 2 2 2 1 1 1 2 3 3 2 2 2 2 1 1
10 10 9 7 11 9 10 13 16 16 16 16 13 14 13 10 8 8 8 6 6 5 5 5 4 4 3 3 2 2 2 2 2 2 3 3 4 2 2 2 2 2 2 1
14 13 10 8 10 11 12 13 16 18 17 17 13 15 12 8 7 6 6 6 5 5 5 5 4 4 4 3 3 2 2 3 3 3 3 1 1 1 1 1 1 1 1 1
14 13 9 8 8 9 11 13 12 14 13 17 16 13 10 8 7 7 6 6 6 6 5 5 4 4 3 3 3 2 2 3 3 3 2 2 2 2 2 1 1 1 1 1
11 14 10 8 8 9 10 10 14 13 17 19 17 16 15 11 9 7 7 7 6 5 5 5 4 4 3 3 2 2 2 2 3 3 3 1 2 2 2 2 1 1 1 1
12 13 11 9 12 12 10 13 12 12 13 18 20 17 10 10 8 8 7 6 6 6 5 5 4 3 3 3 3 3 2 3 3 3 3 2 3 3 3 2 2 1 1 1
10 13 14 12 9 8 10 12 12 14 15 15 15 15 8 7 7 7 7 6 5 5 5 4 4 4 4 3 3 3 3 2 3 3 3 3 3 3 4 3 2 2 2 1
10 15 15 13 10 9 10 9 10 11 12 15 17 15 8 7 8 7 7 6 6 5 5 5 4 4 4 3 3 3 2 2 3 2 3 3 3 4 4 4 3 3 2 2
7 14 14 15 12 10 10 10 9 12 13 14 13 13 10 9 8 7 8 6 6 5 6 5 5 4 4 3 3 3 2 2 2 2 2 2 2 2 3 2 2 1 1 1
10 12 11 11 10 9 9 9 9 12 11 14 11 11 9 8 8 7 8 6 6 6 7 5 5 4 4 3 3 3 2 2 2 2 2 3 2 2 2 2 1 1 1 1
11 12 11 12 10 9 11 10 9 9 9 11 10 11 8 7 7 7 7 7 7 6 5 5 4 4 4 4 3 3 3 2 2 2 2 2 2 2 2 2 2 1 1 1
11 12 13 16 12 11 13 11 10 9 9 9 12 9 8 8 8 7 7 6 7 6 6 5 4 4 4 3 3 3 3 2 2 2 2 2 2 2 2 2 2 2 2 2
11 12 13 15 13 17 11 9 8 9 8 8 8 8 7 8 7 6 6 6 6 5 5 4 4 4 3 3 3 3 2 2 2 3 3 2 2 2 2 2 2 2 2 2
9 11 14 15 17 13 10 9 9 10 10 7 7 7 7 7 7 7 5 8 8 7 6 5 3 3 3 3 2 3 3 3 3 3 2 2 2 2 2 2 2 2 2 2
9 10 13 14 15 17 11 8 6 7 12 7 7 7 7 7 11 9 6 7 5 4 4 4 3 3 4 3 3 3 3 3 3 2 2 2 2 2 2 2 2 2 2 2
13 13 14 14 15 13 8 7 6 13 11 7 6 7 7 9 8 7 6 4 4 4 3 3 4 4 3 3 3 3 3 3 2 2 2 2 2 2 2 2 2 2 2 2
13 14 15 14 16 16 7 7 10 8 7 6 6 6 7 7 7 6 5 5 4 4 3 3 4 4 3 3 2 3 4 2 2 2 2 2 2 2 1 2 2 2 2 2
13 11 13 12 13 8 7 7 6 6 6 6 6 6 6 6 6 5 6 6 5 4 4 3 3 3 3 2 3 3 3 2 2 2 2 2 2 2 2 2 3 3 3 3
10 8 11 11 8 7 6 5 4 5 5 5 5 5 5 6 5 6 5 5 4 4 4 4 4 5 4 3 3 3 3 2 3 3 3 2 3 3 3 3 3 3 3 3
9 9 10 10 8 7 6 5 5 5 4 4 5 4 5 5 5 5 6 5 4 4 3 3 3 3 3 3 4 4 4 4 4 4 3 3 2 3 3 3 3 3 3 3
8 9 10 11 7 7 8 7 4 5 5 5 5 5 4 4 5 4 4 4 4 4 3 3 4 4 5 5 5 5 4 4 4 3 2 2 2 3 3 3 3 4 6 7